Location: Newark
(42.9858°N, 0.6717°E)
Time: 01:39:48
(UTC+00:00)

S-56A Canister/Altair - Pass Details

Date: 23 November 2019
Orbit: 633 x 2500 km, 38.9° (Epoch: 12 December)

Event Time Altitude Azimuth Distance (km) Brightness Sun altitude
Rises 17:14:19 0° 257° (WSW) 5,472 14.2 -8.6°
Reaches altitude 10° 17:18:22 10° 255° (WSW) 4,201 13.0 -9.3°
Maximum altitude 17:28:49 66° 177° (S) 1,435 8.9 -11.1°
Enters shadow 17:35:07 13° 97° (E) 2,633 9.7 -12.2°
Drops below altitude 10° 17:35:35 10° 96° (E) 2,791 - -12.3°
Sets 17:37:48 0° 93° (E) 3,559 - -12.7°
